sat.trackr.live / text

‹ back to catalog

STARLINK-32172

NORAD 61518 · 2024-183K

PAYLOAD ACTIVE UNKNOWN

§ Identity

Operator
Country
US
Launch date
2024-10-15
Launch site
AFETR
Launch vehicle
Mass (kg)
RCS (m²)

Purposes: comms

External: N2YO · Heavens-Above · Gunter

§ Orbital elements

Epoch: 2026-09-21T10:10:49.549440Z

Period
94.01 min
Inclination
53.1616°
Eccentricity
0.0001520
Mean motion
15.31703227 rev/d
Perigee alt
469.7 km
Apogee alt
471.8 km
Semi-major
6,848.9 km
B*
4.0413e-6
RAAN
311.6187°
Arg perigee
73.2392°
Mean anomaly
286.8776°
Rev number
10,964

§ Raw data

STARLINK-321721 61518U 24183K   26264.42418460 -.00000240  00000+0  40413-5 0  99912 61518  53.1616 311.6187 0001520  73.2392 286.8776 15.31703227109641

JSON: /api/v1/satellites/61518 · /tle

For live sub-satellite position, see the globe view (requires WebGL).

§ Visibility from observer

Set your observer location to see the next 7 days of passes ≥ 10°. The values pass through the URL so the page stays shareable.

No JS? Fill the form by hand. The geolocation button needs JavaScript.